Location: Saint-Palais-sur-Mer
(45.6429°N, 1.0859°W)
Time: 21:25:48
(UTC+02:00)

CUBEBUG 2 - Pass Details

Date: 03 May 2024
Orbit: 570 x 669 km, 97.8° (Epoch: 19 May)

Event Time Altitude Azimuth Distance (km) Brightness Sun altitude
Rises 05:06:38 0° 3° (N) 2,825 ? -15.6°
Reaches altitude 10° 05:08:58 10° 352° (N) 1,933 ? -15.3°
Maximum altitude 05:12:35 29° 292° (WNW) 1,107 ? -14.9°
Enters shadow 05:14:18 22° 253° (WSW) 1,340 ? -14.7°
